Вернуться в каталог

DELTA 1 DEB

АктивенLEO
NORAD 27575·DEBRIS·🇺🇸 United States

Запущен Jul 14, 1977 с Cape Canaveral Space Force Station

Loading…

Ближайшие Пролёты (ближайшие 24 часа)

TLE

СвежийSource: Space-Track

Эпоха: Sep 14, 2026, 09:38 UTC

1 27575U 77065GG  26257.40185760  .00003869  00000-0  13697-2 0  9998
2 27575  29.1178 266.2580 0408574 234.9647 272.1342 13.94878687404176

Отслеживайте DELTA 1 DEB в реальном времени с AllMySat

Download on the App Store